(389) Industria
ephemeris date magn radius delta ra dec elong phase
Today1 Jul 202512.72.459 AU2.090 AU12h52m-14°39'98.7°24.1°
Opposition11 Aug 202611.62.711 AU1.703 AU21h17m-07°35'172.1°2.9°
(389) Industria - 2025-07-01
astro.vanbuitenen.nl


 
-1 year
-1 month
-1 day
Now
+1 day
+1 month
+1 year

The interactive orbit chart above shows the body's path through the solar system and its position at the given date. Green and blue lines are shown perpendicular to the ecliptic plane: Green if the path is above the ecliptic plane, blue if it is below. (Left-click and drag to rotate the view; Right-click and drag to move the view; Use scroll wheel to zoom in our out.)

The orbital elements of Industria are:

            e (Eccentricity)                : 0.0662808
            a (Semimajor axis)              : 2.6080366
            i (Inclination)                 : 8.12337
            Ω (Longitude of ascending node) : 282.02288
            ω (Argument of perihelion)      : 267.84968
            M (Mean anomaly)                : 14.88258
            Epoch                           : 2025 May 05

            L (Longitude of perihelion)     : 9.85079
            B (Latitude of perihelion)      : -8.11761
            P (Orbital period in years)     : 4.21            
        

The light curve chart below shows the estimated development of the minor planet's magnitude.


The all-sky chart below shows the path of the minor planet over the same period as the light curve. The current position is marked yellow.





The following chart shows the path of the minor planet in the next few days. The field of view is optimized for (~10x50) binoculars and finderscopes. A more printer-friendly version of the same chart can be found below.




Ephemerides:
Date       Time       RA (2000)    DEC (2000)    delta   radius  elong  phase   PA    magn
2025-07-01 00:00 UT   12 52 59.6   -14 39 56     2.090    2.459   98.7   24.1   112   12.7 
2025-07-01 04:14 UT   12 53 09.5   -14 40 09     2.092    2.459   98.6   24.1   112   12.7 
2025-07-02 00:00 UT   12 53 56.0   -14 41 12     2.102    2.459   98.0   24.2   112   12.7 
2025-07-03 00:00 UT   12 54 53.3   -14 42 35     2.114    2.459   97.3   24.2   112   12.7 
2025-07-04 00:00 UT   12 55 51.6   -14 44 06     2.127    2.460   96.6   24.2   112   12.7 
2025-07-05 00:00 UT   12 56 50.9   -14 45 45     2.139    2.460   95.8   24.3   112   12.7 
2025-07-06 00:00 UT   12 57 51.1   -14 47 31     2.151    2.460   95.1   24.3   112   12.7 
2025-07-07 00:00 UT   12 58 52.3   -14 49 24     2.164    2.461   94.4   24.3   112   12.7 
2025-07-08 00:00 UT   12 59 54.4   -14 51 24     2.176    2.461   93.7   24.3   112   12.8 
2025-07-09 00:00 UT   13 00 57.4   -14 53 32     2.189    2.462   93.0   24.4   112   12.8 
2025-07-10 00:00 UT   13 02 01.3   -14 55 46     2.201    2.462   92.3   24.4   112   12.8 
2025-07-11 00:00 UT   13 03 06.0   -14 58 08     2.214    2.462   91.7   24.4   112   12.8 
2025-07-12 00:00 UT   13 04 11.6   -15 00 36     2.226    2.463   91.0   24.4   113   12.8 
2025-07-13 00:00 UT   13 05 18.1   -15 03 10     2.239    2.463   90.3   24.4   113   12.8 
2025-07-14 00:00 UT   13 06 25.4   -15 05 51     2.251    2.464   89.6   24.4   113   12.8 
2025-07-15 00:00 UT   13 07 33.5   -15 08 38     2.264    2.464   88.9   24.4   113   12.8 
2025-07-16 00:00 UT   13 08 42.5   -15 11 31     2.276    2.464   88.3   24.3   113   12.9 
2025-07-17 00:00 UT   13 09 52.2   -15 14 30     2.289    2.465   87.6   24.3   113   12.9 
2025-07-18 00:00 UT   13 11 02.7   -15 17 35     2.301    2.465   86.9   24.3   113   12.9 
2025-07-19 00:00 UT   13 12 14.1   -15 20 46     2.314    2.466   86.3   24.3   113   12.9 
2025-07-20 00:00 UT   13 13 26.2   -15 24 02     2.326    2.466   85.6   24.3   113   12.9 
2025-07-21 00:00 UT   13 14 39.0   -15 27 24     2.339    2.467   85.0   24.2   113   12.9 
2025-07-22 00:00 UT   13 15 52.6   -15 30 52     2.351    2.467   84.3   24.2   113   12.9 
2025-07-23 00:00 UT   13 17 07.0   -15 34 25     2.364    2.467   83.7   24.2   113   12.9 
2025-07-24 00:00 UT   13 18 22.1   -15 38 03     2.376    2.468   83.0   24.1   113   12.9 
2025-07-25 00:00 UT   13 19 37.9   -15 41 47     2.389    2.468   82.4   24.1   113   13.0 
2025-07-26 00:00 UT   13 20 54.4   -15 45 35     2.401    2.469   81.7   24.0   113   13.0 
2025-07-27 00:00 UT   13 22 11.7   -15 49 28     2.414    2.469   81.1   24.0   113   13.0 
2025-07-28 00:00 UT   13 23 29.6   -15 53 26     2.426    2.470   80.4   23.9   113   13.0 
2025-07-29 00:00 UT   13 24 48.2   -15 57 28     2.439    2.470   79.8   23.9   113   13.0 
2025-07-30 00:00 UT   13 26 07.5   -16 01 35     2.451    2.471   79.2   23.8   113   13.0 
2025-07-31 00:00 UT   13 27 27.4   -16 05 47     2.463    2.471   78.6   23.7   113   13.0 


    Terminology:
            
    delta:  distance between minor planet and earth in AU
    radius: distance between minor planet and sun in AU
    magn:   magnitude (brightness) estimate    
    ra:     right ascension in hours (24h = 360deg)
    dec:    declination in degrees
    elong:  elongation in degrees (angle sun-earth-minor planet)    
    phase:  phase angle in degrees (angle sun-minor planet-earth)        
    AU:     Astronomical Unit (mean distance between earth and sun: 149597870.7 km
    

Orbital elements provided by the MPC (Minor Planet Center).
Calculations by a modified version of AAPlus, a C# implementation of the AA+ project by PJ Naughter from the algorithms presented in the book "Astronomical Algorithms" by Jean Meeus.
NGC2000 dso catalog and star labels from VizieR as provided by the Strasbourg astronomical Data Center.
Tycho2 catalog from the ESO archive.